Regional Weather Roundup
Issued by NWS

Home | Current Version | Previous Version | Text Only | Print | Product List | Glossary Off
Versions: 1 2 3 4 5 6 7 8 9 10 11 12 13 14 15 16 17 18 19 20 21 22 23 24 25 26 27 28 29 30 31 32 33 34 35 36 37 38 39 40 41 42 43 44 45 46 47 48 49 50

000
ASUS45 KBOU 230310
RWRCO

WEATHER ROUNDUP FOR COLORADO
NATIONAL WEATHER SERVICE DENVER/BOULDER CO
900 PM MDT SUN APR 22 2018

NOTE: "FAIR" INDICATES FEW OR NO CLOUDS BELOW 12000 FEET WITH NO
SIGNIFICANT WEATHER AND/OR OBSTRUCTIONS TO VISIBILITY.

COZ001>005-013-030-031-230400-
...NORTHWEST COLORADO...

CITY           SKY/WX    TMP DP  RH WIND       PRES   REMARKS
CRAIG          FAIR      49  39  68 N3        30.07R
HAYDEN         FAIR      49  34  56 S3        30.10R
MEEKER         MOCLDY    52  39  61 NE6       30.07R
RANGELY        FAIR      58  35  42 S6        30.01R
RABBIT EARS PA FAIR      39  23  52 W8        30.28S
STEAMBOAT SPGS FAIR      50  32  50 SE8       30.10S
WALDEN         FAIR      41  25  52 NE3       30.19R
$$

COZ006>008-011-230400-
...WEST CENTRAL VALLEYS...

CITY           SKY/WX    TMP DP  RH WIND       PRES   REMARKS
GRAND JUNCTION FAIR      59  28  30 CALM      29.99R
MONTROSE       FAIR      60  32  34 S10       30.07R
EAGLE          FAIR      52  35  52 N3        30.12R
RIFLE          FAIR      56  41  57 SE7       30.03R
DELTA          FAIR      63  29  28 N7        30.02R
NUCLA          FAIR      59  27  29 CALM      30.10R
$$

COZ017>023-064>068-230400-
...SOUTHWEST COLORADO...

CITY           SKY/WX    TMP DP  RH WIND       PRES   REMARKS
DURANGO        FAIR      58  12  16 SW6       30.10R
CORTEZ         FAIR      52  23  32 VRB3      30.07R
PAGOSA SPRINGS FAIR      50  17  26 CALM      30.15R
TELLURIDE      FAIR      47  28  47 CALM      30.24R
WOLF CREEK PAS FAIR      34  21  60 CALM      30.41R
$$

COZ009-010-012-014-032>034-037-058>063-230400-
...CENTRAL COLORADO...

CITY           SKY/WX    TMP DP  RH WIND       PRES   REMARKS
ASPEN          FAIR      44  29  55 SW10      30.15R
BUENA VISTA    MOCLDY    51  32  47 E7        30.21R
COPPER MTN     NOT AVBL
BERTHOUD PASS  FAIR      28  18  64 S7G17     30.38R WCI  21
COTTONWOOD PAS MOCLDY    48  32  53 E6        30.28R
GUNNISON       CLOUDY    55  30  38 S10G21    30.17R
GRANBY         FAIR      42  31  64 E6        30.18R
KREMMLING      FAIR      54  32  43 CALM      30.14S
LEADVILLE      FAIR      33  32  96 E3        30.27R
MONARCH PASS   MOCLDY    34  27  75 E5        30.47R WCI  30
SALIDA         FAIR      54  32  43 SE14G24   30.24R
SUNLIGHT       FAIR      37  21  52 CALM      30.33R
WILKERSON PASS CLOUDY    34  28  80 S5        30.38R WCI  30
$$

COZ069>075-230400-
...SAN LUIS VALLEY/SANGRE DE CRISTO MOUNTAINS...

CITY           SKY/WX    TMP DP  RH WIND       PRES   REMARKS
ALAMOSA        CLOUDY    53  29  39 E14       30.14R
DEL NORTE      FAIR      47  22  36 W6        30.17R
LA VETA PASS   MOCLDY    36  28  75 N9G17     30.42R
SAGUACHE       NOT AVBL
$$

COZ035-036-038>040-230400-
...NORTHERN COLORADO FRONT RANGE...

CITY           SKY/WX    TMP DP  RH WIND       PRES   REMARKS
DENVER INTL AP FAIR      47  36  65 SE9       30.12R
AURORA         NOT AVBL
FRONT RANGE AP FAIR      47  38  71 SE8       30.15R
ERIE MUNI ARPT FAIR      52  35  53 E8        30.16R
BOULDER MUN AP FAIR      55  36  47 SW3       30.12R
CENTENNIAL     FAIR      52  33  48 SE5       30.14R
BROOMFIELD     PTCLDY    55  30  38 E5        30.13R
FORT COLLINS   FAIR      53  36  52 SE8       30.12R
LONGMONT       FAIR      56  35  44 SE5       30.13R
$$

COZ041-046-047-076>085-087-088-230400-
...PIKES PEAK/PALMER DIVIDE AND SOUTHERN FOOTHILLS...

CITY           SKY/WX    TMP DP  RH WIND       PRES   REMARKS
COLO. SPRINGS  MOCLDY    47  38  71 SE9       30.20R
A. F. ACADEMY  FAIR      48  37  65 SE13      30.19R
SCHRIEVER AFB  NOT AVBL
CHEYENNE MTN   FAIR      45  36  70 S14       30.15R
ELLICOTT         N/A    N/A N/A N/A S9        30.19R
FALCON         FAIR      41  35  79 S5        30.22R
FORT CARSON    MOCLDY    46  38  73 S8        30.18R
LIMON          FAIR      44  37  76 SE14      30.18R
MONUMENT HILL  FAIR      37  32  81 S8        30.21R
CANON CITY     MOCLDY    54  39  58 E7        30.17R
WALSENBURG     NOT AVBL
TRINIDAD       FAIR      50  30  46 E7        30.15R
$$

COZ042>045-048>051-090-091-230400-
...NORTHEAST COLORADO...

CITY           SKY/WX    TMP DP  RH WIND       PRES   REMARKS
GREELEY ARPT   FAIR      51  37  58 SE10      30.12R
AKRON          FAIR      44  37  76 SE12      30.15R
BURLINGTON     FAIR      39  34  82 SE8       30.17R
WRAY           FAIR      45  36  70 SE3       30.16R
YUMA           FAIR      41  32  70 SE8       30.15R
STERLING       NOT AVBL
HOLYOKE        FAIR      43  36  75 SE8       30.16R
FORT MORGAN    FAIR      47  37  68 SE10      30.14R
$$

COZ086-089-092>099-230400-
...SOUTHEAST COLORADO...

CITY           SKY/WX    TMP DP  RH WIND       PRES   REMARKS
PUEBLO         FAIR      51  35  54 E9        30.15R
LA JUNTA       FAIR      49  36  61 MISG      30.16R
LAMAR          FAIR      44  36  73 SE9       30.15R
SPRINGFIELD      N/A     41  34  76 E7        30.17R
$$



USA.gov is the U.S. government's official web portal to all federal, state and local government web resources and services.